Location: Maccacari
(45.1333°N, 11.1333°E)
Time: 01:49:22
(UTC+00:00)

A-11 Canister half - Pass Details

Date: 22 January 2021
Orbit: 1525 x 1684 km, 47.3° (Epoch: 07 March)

Event Time Altitude Azimuth Distance (km) Brightness Sun altitude
Rises 19:19:50 0° 290° (WNW) 4,753 12.6 -33.4°
Reaches altitude 10° 19:22:52 10° 289° (WNW) 3,787 11.8 -33.9°
Maximum altitude 19:32:30 76° 206° (SSW) 1,663 9.0 -35.6°
Enters shadow 19:33:21 72° 166° (SSE) 1,693 8.9 -35.7°
Drops below altitude 10° 19:42:27 10° 123° (ESE) 3,902 - -37.3°
Sets 19:45:38 0° 122° (ESE) 4,903 - -37.9°
